Regional Weather Roundup
Issued by NWS

Home | Current Version | Previous Version | Text Only | Print | Product List | Glossary On
Versions: 1 2 3 4 5 6 7 8 9 10 11 12 13 14 15 16 17 18 19 20 21 22 23 24 25 26 27
000
ASUS45 KTFX 260010
RWRMT
MONTANA REGIONAL WEATHER ROUNDUP
NATIONAL WEATHER SERVICE GREAT FALLS MT
600 PM MDT THU MAY 25 2017

NOTE: "FAIR" INDICATES FEW OR NO CLOUDS BELOW 12000 FEET WITH NO
SIGNIFICANT WEATHER AND/OR OBSTRUCTIONS TO VISIBILITY.

MTZ001>007-043-260100-
WEST OF THE DIVIDE

CITY           SKY/WX    TMP DP  RH WIND       PRES   REMARKS
KALISPELL      PTSUNNY   61  38  42 W5        29.79S
MISSOULA       CLOUDY    61  33  35 E14       29.79R
BUTTE          CLOUDY    52  29  41 E8        29.85S
MULLAN PASS    CLOUDY    45  34  65 VRB3      29.86S
ANACONDA         N/A     55  28  35 NE8       29.83R
DEER LODGE       N/A     55  28  35 CALM      29.85S
EUREKA           N/A     66  30  26 SW9       29.75S
HAMILTON         N/A     64  30  27 CALM      29.78S
RONAN            N/A     64  29  27 NW10      29.85S
$$

MTZ008-052>055-260100-
SOUTHWEST MONTANA

CITY           SKY/WX    TMP DP  RH WIND       PRES   REMARKS
BOZEMAN        CLOUDY    55  34  45 NW12      29.84S
DILLON         CLOUDY    54  28  36 NE12      29.81S
W YELLOWSTONE  CLOUDY    46  25  42 NE8G16    29.85S
ENNIS          CLOUDY    52  30  43 N12       29.88S
THREE FORKS      N/A     54  31  41 NW3       29.86R
$$

MTZ009-010-012-014-046-048-049-054-260100-
EAST SLOPES AND CENTRAL MONTANA

CITY           SKY/WX    TMP DP  RH WIND       PRES   REMARKS
CUT BANK       LGT RAIN  47  41  80 NW15      29.82R
GREAT FALLS    CLOUDY    55  34  45 NW10      29.82S
MALMSTROM AFB  CLOUDY    58  30  34 NW14G25   29.81S
HELENA         CLOUDY    58  32  37 NE12      29.84S
CHOTEAU          N/A     52  37  58 NW16      29.87R
CONRAD           N/A     58  46  64 W17       29.85R
$$

MTZ011-013-016-021-045-047-050-051-260100-
NORTH CENTRAL MONTANA

CITY           SKY/WX    TMP DP  RH WIND       PRES   REMARKS
HAVRE          CLOUDY    60  34  37 NW18G24   29.71R
LEWISTOWN      CLOUDY    52  36  54 NW14G24   29.77S
N BAR RANCH    CLOUDY    50  36  57 NW18G26   29.79R
CHINOOK          N/A     59  34  38 NW18G33   29.69R
FORT BENTON      N/A     59  34  38 CALM        N/A
$$

MTZ017>020-022>027-061-062-260100-
NORTHEAST MONTANA

CITY           SKY/WX    TMP DP  RH WIND       PRES   REMARKS
GLASGOW        PTSUNNY   56  39  53 W24G38    29.59R
JORDAN           N/A     56  39  53 W30G41    29.66R
SIDNEY         LGT RAIN  56  45  66 W16G25    29.53R
WOLF POINT     LGT RAIN  57  47  69 NW24G39   29.56R
MALTA          CLOUDY    55  39  54 NW23G32   29.66R
PLENTYWOOD       N/A     59  39  47 W22G29    29.46R
POPLAR           N/A     59  43  55 NW24G32   29.52R
$$

MTZ028>42-056>058-260100-
SOUTHCENTRAL AND SOUTHEAST MONTANA

CITY           SKY/WX    TMP DP  RH WIND       PRES   REMARKS
BAKER          PTSUNNY   53  43  68 W24       29.64R
BILLINGS       PTSUNNY   58  30  34 NW20G26   29.76R
LIVINGSTON     CLOUDY    50  37  61 W9        29.84R
MILES CITY     CLOUDY    57  38  48 W23G30    29.66R
BIG TIMBER     PTSUNNY   52  34  50 W17G24    29.83R
FORSYTH          N/A     55  37  50 W18G24    29.69R
LAUREL           N/A     55  32  41 W7        29.80R
ROUNDUP          N/A     56  32  40 W17       29.71R
$$

REGIONAL REPORTS...DAKOTAS

CITY           SKY/WX    TMP DP  RH WIND       PRES   REMARKS
WILLISTON      CLOUDY    62  41  46 W15       29.48R
MINOT          CLOUDY    63  45  51 SW18G30   29.45R
DICKINSON      CLOUDY    57  42  57 W24G30    29.55R
BEACH          CLOUDY    54  48  82 W16       29.62R
CROSBY           N/A     61  41  48 W24G32    29.44R
TIOGA          CLOUDY    61  41  48 W18       29.48R
WATFORD CITY   CLOUDY    59  43  55 W18G25    29.50R
BISMARCK       MOSUNNY   71  42  35 W22G29    29.50R
GRAND FORKS    CLOUDY    68  51  54 SE17G24   29.48S
FARGO          CLOUDY    68  50  52 S18G24    29.50S
BUFFALO SD       N/A     55  43  63 NW29G37   29.60R
RAPID CITY     MOSUNNY   66  34  30 N16G22    29.61R
$$

REGIONAL REPORTS...WYOMING/IDAHO/WASHINGTON

CITY           SKY/WX    TMP DP  RH WIND       PRES   REMARKS
GILLETTE       PTSUNNY   55  38  52 NW22G28   29.75R
SHERIDAN       CLOUDY    56  36  47 N18G28    29.77R
BUFFALO WY     CLOUDY    53  34  48 N20G39    29.77R
CODY           PTSUNNY   54  28  36 N18       29.80R
IDAHO FALLS    MOSUNNY   64  24  21 VRB5      29.76F
SALMON         CLOUDY    59  34  38 N10       29.73S
BOISE          PTSUNNY   66  32  28 W9        29.72S
SPOKANE        PTSUNNY   61  38  42 W8        29.83S
$$

REGIONAL REPORTS...ALBERTA

CITY           SKY/WX    TMP DP  RH WIND       PRES   REMARKS
EDMONTON       PTSUNNY   63  37  39 N17G30    29.72R
CALGARY        LGT RAIN  48  41  76 NW12G25   29.82R
LETHBRIDGE     MOSUNNY   57  39  51 NW20G26   29.79R
MEDICINE HAT   PTSUNNY   61  37  41 N26G36    29.68R
WATERTON GATE    N/A     54  39  58 SW3         N/A
CARDSTON         N/A     50  41  71 NW7         N/A
MILK RIVER       N/A     57  37  47 N25G37      N/A
ONEFOUR          N/A     55  36  47 NW24G33     N/A
$$

REGIONAL REPORTS...SASKATCHEWAN

CITY           SKY/WX    TMP DP  RH WIND       PRES   REMARKS
SWIFT CURRENT  CLOUDY    46  43  87 NW32G43   29.52R
REGINA         PTSUNNY   55  43  62 NW25G33   29.39R
SASKATOON      PTSUNNY   54  48  82 NW18G32   29.41R
CYPRESS HILLS    N/A     43  37  81 NW12G21     N/A
VAL MARIE        N/A     50  39  66 NW30G37     N/A
ROCKGLEN         N/A     52  43  71 NW18G31     N/A
ASSINIBOIA       N/A     63  34  34 N23G31      N/A
$$




USA.gov is the U.S. government's official web portal to all federal, state and local government web resources and services.